Regional Weather Roundup
Issued by NWS

Home | Current Version | Previous Version | Text Only | Print | Product List | Glossary On
Versions: 1 2 3 4 5 6 7 8 9 10 11 12 13 14 15 16 17 18 19 20 21 22 23 24 25 26 27 28 29 30 31 32 33 34 35 36 37 38 39 40 41 42 43 44 45 46 47 48 49 50
000
ASUS44 KLIX 281713
RWRLA
LOUISIANA WEATHER ROUNDUP
NATIONAL WEATHER SERVICE NEW ORLEANS LA
1200 PM CDT FRI APR 28 2017

NOTE: "FAIR" INDICATES FEW OR NO CLOUDS BELOW 12,000 FEET WITH NO
      SIGNIFICANT WEATHER AND/OR OBSTRUCTIONS TO VISIBILITY.
      SKY/WX - SKY CONDITION AND SIGNIFICANT WEATHER.
      TMP - AIR TEMPERATURE.    DP   - DEWPOINT TEMPERATURE.
      RH  - RELATIVE HUMIDITY.  PRES - PRESSURE.
      HX  - HEAT INDEX.         WCI  - WIND CHILL INDEX.

*  THESE STATIONS ARE NOT NWS OR FAA STATIONS AND ARE NOT UNDER
   NWS QUALITY CONTROL.

LAZ040-048-061>063-065-066-069-281800-
SOUTHEAST LOUISIANA

CITY           SKY/WX    TMP DP  RH WIND       PRES   REMARKS
N.O. INTL ARPT CLOUDY    82  74  76 S12G24    29.89R
N.O. LAKEFRONT CLOUDY    82  74  76 S18G26    29.90R
N.O. DOWNTOWN*   N/A     83  74  74 S18G25      N/A
RESERVE*       NOT AVBL
SLIDELL        CLOUDY    81  74  79 S13G22    29.90S
BATON ROUGE    PTSUNNY   86  71  60 S20G29    29.85R
BOOTHVILLE     CLOUDY    81  76  84 S16G25    29.92S
BELLE CHASSE   CLOUDY    82  75  79 S15       29.90R
BOGALUSA*      NOT AVBL
GALLIANO*      CLOUDY    85  73  65 S21G31    29.88S
NEW ROADS*     CLOUDY    84  73  67 S14G20    29.85R
GONZALES*      CLOUDY    84  72  66 S16G22    29.86S
HAMMOND*       CLOUDY    84  70  61 S14G26    29.88S
HOUMA*         CLOUDY    82  75  78 S22G28    29.87S HAZE
PORT FOURCHON* MOSUNNY   81  75  83 S14G25    29.89R HAZE

$$

LAZ041-044-053-054-281800-
SOUTHWEST LOUISIANA

CITY           SKY/WX    TMP DP  RH WIND       PRES   REMARKS
LAKE CHARLES   CLOUDY    84  74  71 S12G26    29.78S
LAFAYETTE      CLOUDY    84  75  74 S16G23    29.82S
PATTERSON      CLOUDY    82  75  79 S17G23    29.86R
SALT POINT       N/A     81  75  82 VRB7        N/A
NEW IBERIA     CLOUDY    81  73  76 S15       29.84S
CHENAULT AIRPK NOT AVBL

$$

LAZ027-028-281800-
CENTRAL LOUISIANA

CITY           SKY/WX    TMP DP  RH WIND       PRES   REMARKS
FORT POLK      PTSUNNY   84  72  67 S22G31    29.76R
ALEXANDRIA INT CLOUDY    83  71  67 S18G28    29.76R HAZE
ALEXANDRIA     CLOUDY    83  72  69 S14G24    29.79R

$$

LAZ001-002-281800-
NORTHWEST LOUISIANA

CITY           SKY/WX    TMP DP  RH WIND       PRES   REMARKS
SHREVEPORT     PTSUNNY   84  72  67 S17G26    29.70S
BARKSDALE AFB  MOSUNNY   82  71  68 S17G25    29.71R
DTN SHREVEPORT PTSUNNY   83  71  67 S17G25    29.71S

$$

LAZ014-016-281800-
NORTHEAST LOUISIANA

CITY           SKY/WX    TMP DP  RH WIND       PRES   REMARKS
MONROE         CLOUDY    84  71  65 S16G26    29.76S
TALLULAH       LGT RAIN  83  70  64 S22G30    29.79F

$$




USA.gov is the U.S. government's official web portal to all federal, state and local government web resources and services.